QPF
0.00 0.00 0.00 0.00 0.00 0.00 0.00 0.00 0.00 0.00 0.00 0.00 0.00 0.00 0.00 0.00 0.00 0.00 0.00 0.00 0.00 0.00 0.00 0.00 0.00 0.00 0.00 0.00 0.00 0.00 0.00 0.00 0.00 0.00 0.00 0.00 0.00 0.00 0.00 0.00 0.00 0.00 0.00 0.00 0.00 0.00 0.00 0.00 0.00 0.00 0.00 0.00 0.00 0.00
0.00 0.00 0.00 0.00 0.00 0.00 0.00 0.00 0.00 0.00 0.00 0.00 0.00 0.00 0.00 0.00 0.00 0.00 0.00 0.00 0.00 0.00 0.00 0.00 0.00 0.00 0.00 0.00 0.00 0.00 0.00 0.00 0.00 0.00 0.00 0.00 0.00 0.00 0.00 0.00 0.00 0.00 0.00 0.00 0.00 0.00 0.00 0.00 0.00 0.00 0.00 0.00 0.00 0.00
0.00 0.00 0.00 0.00 0.00 0.00 0.00 0.00 0.00 0.00 0.00 0.00 0.00 0.00 0.00 0.00 0.00 0.00 0.00 0.00 0.00 0.00 0.00 0.00 0.00 0.00 0.00 0.00 0.00 0.00 0.00 0.00 0.00 0.00 0.00 0.00 0.00 0.00 0.00 0.00 0.00 0.00 0.00 0.00 0.00 0.00 0.00 0.00 0.00 0.00 0.00 0.00 0.00 0.00
0.00 0.00 0.00 0.00 0.00 0.00 0.00 0.00 0.00 0.00 0.00 0.00 0.00 0.00 0.00 0.00 0.00 0.00 0.00 0.00 0.00 0.00 0.00 0.00 0.00 0.00 0.00 0.00 0.00 0.00 0.00 0.00 0.00 0.00 0.00 0.00 0.00 0.00 0.00 0.00 0.00 0.00 0.00 0.00 0.00 0.00 0.00 0.00 0.00 0.00 0.00 0.00 0.00 0.00
0.00 0.00 0.00 0.00 0.00 0.00 0.00 0.00 0.00 0.00 0.00 0.00 0.00 0.00 0.00 0.00 0.00 0.00 0.00 0.00 0.00 0.00 0.00 0.00 0.00 0.00 0.00 0.00 0.00 0.00 0.00 0.00 0.00 0.00 0.00 0.00 0.00 0.00 0.00 0.00 0.00 0.00 0.00 0.00 0.00 0.00 0.00 0.00 0.00 0.00 0.00 0.00 0.00 0.00
0.00 0.00 0.00 0.00 0.00 0.00 0.00 0.00 0.00 0.00 0.00 0.00 0.00 0.00 0.00 0.00 0.00 0.00 0.00 0.00 0.00 0.00 0.00 0.00 0.00 0.00 0.00 0.00 0.00 0.00 0.00 0.00 0.00 0.00 0.00 0.00 0.00 0.00 0.00 0.00 0.00 0.00 0.00 0.00 0.00 0.00 0.00 0.00 0.00 0.00 0.00 0.00 0.00 0.00
0.00 0.00 0.00 0.00 0.00 0.00 0.00 0.00 0.00 0.00 0.00 0.00 0.00 0.00 0.00 0.00 0.00 0.00 0.00 0.00 0.00 0.00 0.00 0.00 0.00 0.00 0.00 0.00 0.00 0.00 0.00 0.00 0.00 0.00 0.00 0.00 0.00 0.00 0.00 0.00 0.00 0.00 0.00 0.00 0.00 0.00 0.00 0.00 0.00 0.00 0.00 0.00 0.00 0.00
0.00 0.00 0.00 0.00 0.00 0.00 0.00 0.00 0.00 0.00 0.00 0.00 0.00 0.00 0.00 0.00 0.00 0.00 0.00 0.00 0.00 0.00 0.00 0.00 0.00 0.00 0.00 0.00 0.00 0.00 0.00 0.00 0.00 0.00 0.00 0.00 0.00 0.00 0.00 0.00 0.00 0.00 0.00 0.00 0.00 0.00 0.00 0.00 0.00 0.00 0.00 0.00 0.00 0.00
0.00 0.00 0.00 0.00 0.00 0.00 0.00 0.00 0.00 0.00 0.00 0.00 0.00 0.00 0.00 0.00 0.00 0.00 0.00 0.00 0.00 0.00 0.00 0.00 0.00 0.00 0.00 0.00 0.00 0.00 0.00 0.00 0.00 0.00 0.00 0.00 0.00 0.01 0.00 0.00 0.00 0.00 0.00 0.01 0.02 0.01 0.00 0.01 0.00 0.00 0.00 0.00 0.00 0.00
0.00 0.00 0.00 0.00 0.00 0.00 0.00 0.00 0.00 0.00 0.00 0.00 0.00 0.00 0.00 0.00 0.00 0.00 0.00 0.00 0.00 0.00 0.00 0.00 0.00 0.00 0.00 0.00 0.00 0.00 0.00 0.00 0.00 0.00 0.00 0.00 0.01 0.01 0.00 0.00 0.00 0.00 0.01 0.05 0.09 0.03 0.04 0.05 0.04 0.01 0.00 0.00 0.00 0.00
0.00 0.00 0.00 0.00 0.00 0.00 0.00 0.00 0.00 0.00 0.00 0.00 0.00 0.00 0.00 0.00 0.00 0.00 0.00 0.00 0.00 0.00 0.00 0.00 0.00 0.00 0.00 0.00 0.00 0.00 0.00 0.00 0.00 0.00 0.02 0.01 0.01 0.00 0.00 0.00 0.00 0.00 0.01 0.07 0.11 0.09 0.14 0.20 0.35 0.25 0.08 0.03 0.05 0.06
0.00 0.00 0.00 0.00 0.00 0.00 0.00 0.00 0.00 0.00 0.00 0.00 0.00 0.00 0.00 0.00 0.00 0.00 0.00 0.00 0.00 0.00 0.00 0.00 0.00 0.00 0.00 0.00 0.00 0.00 0.01 0.00 0.00 0.02 0.05 0.01 0.00 0.00 0.01 0.00 0.00 0.00 0.00 0.01 0.04 0.10 0.11 0.08 0.10 0.23 0.31 0.30 0.14 0.09
0.00 0.00 0.00 0.00 0.00 0.00 0.00 0.00 0.00 0.00 0.00 0.00 0.00 0.00 0.00 0.00 0.00 0.00 0.00 0.00 0.00 0.00 0.00 0.00 0.01 0.00 0.00 0.00 0.00 0.01 0.01 0.00 0.00 0.01 0.02 0.02 0.00 0.00 0.00 0.00 0.00 0.00 0.00 0.00 0.00 0.01 0.03 0.03 0.04 0.04 0.12 0.09 0.00 0.00
0.00 0.00 0.00 0.00 0.00 0.00 0.00 0.00 0.00 0.00 0.00 0.00 0.00 0.00 0.00 0.00 0.00 0.00 0.00 0.00 0.00 0.00 0.00 0.00 0.01 0.00 0.00 0.01 0.00 0.01 0.00 0.00 0.01 0.03 0.08 0.02 0.00 0.00 0.00 0.00 0.00 0.00 0.00 0.00 0.00 0.00 0.00 0.00 0.00 0.00 0.00 0.00 0.00 0.00
0.00 0.00 0.00 0.00 0.00 0.00 0.00 0.00 0.00 0.00 0.00 0.00 0.00 0.00 0.00 0.00 0.00 0.00 0.00 0.00 0.00 0.00 0.00 0.01 0.01 0.00 0.02 0.02 0.00 0.01 0.01 0.01 0.04 0.05 0.02 0.00 0.00 0.00 0.01 0.01 0.01 0.01 0.01 0.01 0.00 0.00 0.00 0.00 0.00 0.00 0.00 0.00 0.00 0.00
0.00 0.00 0.00 0.00 0.00 0.00 0.00 0.00 0.00 0.00 0.00 0.00 0.00 0.00 0.00 0.00 0.00 0.00 0.00 0.00 0.00 0.00 0.03 0.03 0.04 0.03 0.03 0.02 0.03 0.03 0.02 0.04 0.06 0.01 0.00 0.00 0.00 0.00 0.01 0.02 0.02 0.02 0.01 0.01 0.01 0.00 0.00 0.00 0.00 0.00 0.00 0.00 0.00 0.00
0.00 0.01 0.00 0.00 0.00 0.00 0.00 0.00 0.00 0.00 0.00 0.00 0.00 0.00 0.00 0.00 0.00 0.00 0.00 0.00 0.00 0.06 0.05 0.03 0.03 0.02 0.01 0.01 0.01 0.04 0.05 0.02 0.00 0.00 0.00 0.00 0.00 0.00 0.01 0.02 0.03 0.01 0.00 0.00 0.00 0.00 0.00 0.00 0.00 0.00 0.00 0.00 0.00 0.00
0.01 0.01 0.00 0.00 0.00 0.00 0.00 0.00 0.00 0.00 0.00 0.00 0.00 0.00 0.00 0.00 0.00 0.00 0.00 0.00 0.02 0.07 0.05 0.03 0.03 0.02 0.01 0.01 0.02 0.02 0.00 0.00 0.00 0.00 0.00 0.00 0.01 0.02 0.03 0.02 0.00 0.00 0.00 0.00 0.00 0.00 0.00 0.00 0.00 0.00 0.00 0.00 0.00 0.00
0.00 0.00 0.00 0.00 0.00 0.00 0.00 0.00 0.00 0.01 0.00 0.00 0.00 0.00 0.00 0.00 0.00 0.00 0.00 0.00 0.00 0.00 0.03 0.04 0.04 0.03 0.01 0.01 0.00 0.00 0.00 0.00 0.00 0.00 0.00 0.00 0.01 0.01 0.01 0.01 0.00 0.00 0.00 0.00 0.00 0.00 0.00 0.00 0.00 0.00 0.00 0.00 0.00 0.00
0.00 0.00 0.00 0.00 0.00 0.01 0.00 0.00 0.00 0.01 0.01 0.02 0.02 0.01 0.00 0.00 0.00 0.01 0.01 0.00 0.00 0.01 0.05 0.04 0.01 0.00 0.00 0.00 0.00 0.00 0.00 0.00 0.00 0.00 0.00 0.00 0.00 0.00 0.01 0.01 0.00 0.00 0.00 0.00 0.00 0.00 0.00 0.00 0.00 0.00 0.00 0.00 0.00 0.01
0.00 0.00 0.00 0.00 0.00 0.00 0.00 0.00 0.00 0.02 0.03 0.03 0.04 0.04 0.03 0.03 0.04 0.05 0.06 0.05 0.04 0.04 0.06 0.00 0.00 0.00 0.00 0.00 0.00 0.00 0.00 0.00 0.00 0.01 0.00 0.00 0.00 0.01 0.02 0.00 0.00 0.00 0.00 0.01 0.00 0.00 0.00 0.00 0.00 0.00 0.00 0.00 0.02 0.04
0.00 0.00 0.01 0.00 0.01 0.01 0.00 0.00 0.00 0.01 0.01 0.01 0.00 0.01 0.01 0.05 0.09 0.08 0.07 0.05 0.02 0.00 0.00 0.00 0.00 0.00 0.00 0.00 0.00 0.00 0.00 0.00 0.00 0.00 0.00 0.00 0.01 0.02 0.00 0.00 0.00 0.00 0.01 0.00 0.00 0.01 0.01 0.01 0.00 0.00 0.01 0.03 0.04 0.05
0.00 0.01 0.01 0.00 0.01 0.02 0.01 0.01 0.01 0.01 0.00 0.00 0.00 0.00 0.00 0.00 0.01 0.04 0.09 0.03 0.00 0.00 0.00 0.00 0.00 0.00 0.00 0.00 0.00 0.00 0.00 0.00 0.00 0.00 0.00 0.00 0.02 0.01 0.00 0.00 0.01 0.04 0.05 0.04 0.02 0.02 0.04 0.05 0.03 0.03 0.03 0.02 0.05 0.07
0.00 0.01 0.02 0.02 0.01 0.01 0.03 0.02 0.00 0.01 0.01 0.00 0.00 0.00 0.02 0.02 0.02 0.05 0.01 0.00 0.00 0.00 0.00 0.00 0.00 0.00 0.00 0.00 0.00 0.00 0.00 0.00 0.00 0.00 0.00 0.00 0.02 0.00 0.00 0.00 0.02 0.04 0.05 0.05 0.09 0.12 0.14 0.11 0.01 0.00 0.00 0.00 0.01 0.03
0.01 0.00 0.02 0.01 0.03 0.03 0.02 0.03 0.01 0.00 0.00 0.00 0.00 0.00 0.00 0.06 0.09 0.03 0.00 0.00 0.00 0.00 0.00 0.00 0.00 0.00 0.00 0.00 0.00 0.00 0.00 0.00 0.00 0.00 0.00 0.00 0.01 0.00 0.00 0.00 0.00 0.00 0.01 0.03 0.09 0.12 0.05 0.06 0.02 0.01 0.01 0.00 0.00 0.02
0.00 0.01 0.01 0.02 0.02 0.01 0.01 0.02 0.01 0.00 0.00 0.02 0.02 0.00 0.03 0.06 0.00 0.00 0.00 0.00 0.00 0.00 0.00 0.00 0.00 0.00 0.00 0.00 0.00 0.00 0.00 0.00 0.00 0.00 0.00 0.00 0.00 0.00 0.00 0.00 0.01 0.01 0.00 0.00 0.02 0.06 0.08 0.06 0.01 0.00 0.00 0.00 0.00 0.01
0.01 0.02 0.02 0.02 0.02 0.01 0.01 0.01 0.02 0.03 0.02 0.02 0.01 0.02 0.04 0.00 0.00 0.00 0.00 0.00 0.00 0.00 0.00 0.00 0.00 0.00 0.00 0.00 0.00 0.00 0.00 0.00 0.00 0.00 0.00 0.00 0.00 0.00 0.00 0.00 0.00 0.01 0.00 0.00 0.01 0.00 0.00 0.00 0.00 0.00 0.01 0.00 0.00 0.00
0.01 0.01 0.02 0.03 0.01 0.00 0.01 0.01 0.01 0.02 0.01 0.01 0.03 0.02 0.00 0.00 0.00 0.00 0.00 0.00 0.00 0.00 0.00 0.00 0.00 0.00 0.00 0.00 0.00 0.00 0.00 0.00 0.00 0.00 0.00 0.00 0.00 0.00 0.00 0.00 0.00 0.00 0.00 0.00 0.01 0.02 0.00 0.00 0.00 0.00 0.00 0.00 0.01 0.00
0.00 0.01 0.02 0.01 0.01 0.01 0.00 0.00 0.00 0.00 0.01 0.04 0.10 0.04 0.00 0.00 0.00 0.00 0.00 0.00 0.00 0.00 0.00 0.00 0.00 0.00 0.00 0.00 0.00 0.00 0.00 0.00 0.00 0.00 0.00 0.00 0.00 0.00 0.00 0.00 0.00 0.00 0.00 0.00 0.00 0.01 0.00 0.00 0.00 0.00 0.00 0.00 0.00 0.00
0.00 0.01 0.02 0.01 0.01 0.00 0.00 0.00 0.00 0.00 0.00 0.01 0.04 0.05 0.02 0.00 0.00 0.00 0.00 0.00 0.00 0.00 0.00 0.00 0.00 0.00 0.00 0.00 0.00 0.00 0.00 0.00 0.00 0.00 0.00 0.00 0.00 0.00 0.00 0.00 0.00 0.00 0.00 0.00 0.00 0.00 0.00 0.00 0.00 0.00 0.00 0.00 0.00 0.00
0.01 0.01 0.00 0.00 0.00 0.00 0.00 0.00 0.00 0.00 0.00 0.00 0.01 0.05 0.03 0.00 0.00 0.00 0.00 0.00 0.00 0.00 0.00 0.00 0.00 0.00 0.00 0.00 0.00 0.00 0.00 0.00 0.00 0.00 0.00 0.00 0.00 0.00 0.00 0.00 0.00 0.00 0.00 0.00 0.00 0.00 0.00 0.00 0.00 0.00 0.00 0.00 0.00 0.00
0.00 0.00 0.00 0.00 0.00 0.00 0.00 0.00 0.00 0.00 0.00 0.00 0.00 0.01 0.04 0.07 0.02 0.00 0.00 0.00 0.00 0.00 0.00 0.00 0.00 0.00 0.00 0.00 0.00 0.00 0.00 0.00 0.00 0.00 0.00 0.00 0.00 0.00 0.00 0.00 0.00 0.00 0.00 0.00 0.00 0.00 0.00 0.00 0.00 0.00 0.00 0.00 0.00 0.00
0.00 0.00 0.00 0.00 0.00 0.03 0.04 0.08 0.10 0.06 0.02 0.02 0.01 0.00 0.02 0.04 0.01 0.00 0.00 0.00 0.00 0.00 0.00 0.00 0.00 0.00 0.00 0.00 0.00 0.00 0.00 0.00 0.00 0.00 0.00 0.00 0.00 0.00 0.00 0.00 0.00 0.00 0.00 0.00 0.00 0.00 0.00 0.00 0.00 0.00 0.00 0.00 0.00 0.00
MSLP
1021.15 1021.06 1020.99 1020.92 1020.80 1020.68 1020.57 1020.42 1020.21 1020.04 1019.84 1019.54 1019.19 1018.83 1018.46 1018.06 1017.61 1016.71 1014.19 1014.47 1013.73 1011.21 1009.27 1009.07 1009.00 1008.64 1008.09 1008.05 1006.98 1007.53 1007.62 1006.76 1006.42 1005.95 1005.14 1004.25 1003.74 1003.29 1003.17 1002.94 1003.02 1002.95 1002.58 1001.95 1001.60 1001.11 1000.56 1000.14 1000.00 1000.08 1000.02 1000.27 1000.93 1001.11
1020.99 1020.88 1020.76 1020.67 1020.59 1020.50 1020.43 1020.31 1020.16 1019.99 1019.81 1019.59 1019.33 1019.04 1018.74 1018.43 1018.04 1017.58 1014.37 1014.32 1014.45 1013.25 1010.26 1010.45 1010.08 1009.83 1009.61 1008.80 1007.99 1007.47 1007.41 1007.48 1006.67 1006.33 1005.47 1005.07 1004.40 1003.92 1003.87 1003.27 1003.11 1002.77 1002.59 1002.44 1002.26 1001.37 1001.34 1002.18 1001.52 1001.18 1001.27 1001.00 1001.44 1001.74
1020.82 1020.68 1020.52 1020.41 1020.31 1020.25 1020.18 1020.12 1020.03 1019.90 1019.70 1019.49 1019.28 1019.05 1018.83 1018.56 1018.26 1017.88 1015.73 1014.98 1013.98 1012.44 1010.11 1009.49 1008.88 1009.04 1009.66 1009.55 1009.26 1008.72 1007.83 1007.96 1008.03 1007.95 1007.49 1006.54 1005.90 1005.47 1004.58 1003.74 1003.55 1003.16 1003.22 1002.87 1002.82 1002.57 1002.22 1001.87 1001.63 1001.65 1001.28 1001.73 1002.36 1002.98
1020.65 1020.49 1020.30 1020.11 1020.02 1019.94 1019.89 1019.80 1019.72 1019.65 1019.53 1019.36 1019.14 1018.90 1018.72 1018.53 1018.33 1018.06 1015.68 1015.06 1014.24 1012.73 1010.39 1008.47 1009.09 1009.07 1009.32 1009.34 1009.64 1009.49 1008.95 1009.01 1008.76 1008.68 1008.02 1007.09 1006.24 1005.71 1005.17 1004.76 1004.43 1004.20 1003.94 1003.55 1003.30 1003.16 1003.03 1002.71 1002.38 1002.23 1002.57 1002.73 1003.28 1003.32
1020.51 1020.38 1020.19 1019.92 1019.77 1019.67 1019.58 1019.47 1019.38 1019.29 1019.23 1019.12 1018.96 1018.76 1018.55 1018.38 1018.20 1017.63 1015.78 1014.98 1014.77 1014.15 1011.20 1008.79 1008.41 1008.56 1009.10 1009.24 1009.53 1009.64 1009.43 1009.09 1008.75 1008.34 1007.80 1007.07 1006.54 1006.22 1005.79 1005.49 1004.76 1004.61 1004.35 1004.04 1003.43 1003.66 1003.55 1003.43 1003.47 1003.44 1003.38 1003.19 1003.16 1003.11
1020.36 1020.26 1020.09 1019.81 1019.55 1019.52 1019.38 1019.19 1019.05 1018.95 1018.89 1018.85 1018.71 1018.51 1018.33 1018.18 1018.08 1016.51 1014.48 1014.72 1014.79 1014.61 1012.65 1008.92 1008.03 1008.54 1008.71 1009.13 1009.42 1009.45 1009.31 1009.07 1008.92 1008.35 1007.50 1006.89 1006.49 1006.80 1006.01 1005.34 1005.31 1005.20 1005.53 1005.53 1005.22 1004.79 1004.23 1003.87 1003.72 1003.35 1002.89 1002.73 1002.87 1002.71
1020.21 1020.04 1019.87 1019.65 1019.40 1019.30 1019.13 1018.93 1018.79 1018.66 1018.55 1018.50 1018.39 1018.15 1017.91 1017.70 1017.24 1016.27 1016.05 1015.88 1015.99 1014.93 1012.73 1009.54 1007.21 1007.97 1008.43 1008.78 1008.77 1008.64 1008.51 1008.49 1008.58 1008.14 1007.34 1007.13 1006.92 1007.25 1006.86 1006.37 1006.72 1007.74 1007.78 1007.49 1007.14 1006.37 1005.45 1005.01 1004.00 1003.22 1002.54 1002.39 1002.04 1001.78
1019.89 1019.82 1019.67 1019.55 1019.33 1019.04 1018.86 1018.74 1018.61 1018.45 1018.29 1018.21 1018.11 1017.91 1017.70 1017.51 1017.45 1016.39 1016.21 1016.49 1016.35 1014.42 1012.90 1009.98 1007.04 1007.24 1007.93 1007.40 1007.03 1007.18 1007.52 1007.60 1007.93 1007.87 1007.44 1006.94 1007.21 1007.14 1007.19 1007.96 1008.59 1008.94 1009.13 1008.60 1007.73 1006.97 1006.17 1005.36 1004.36 1003.39 1002.44 1001.89 1001.69 1001.39
1019.74 1019.49 1019.43 1019.29 1019.10 1018.86 1018.66 1018.51 1018.39 1018.25 1018.07 1017.98 1017.89 1017.76 1017.14 1016.98 1015.49 1015.91 1016.63 1016.64 1015.73 1015.01 1012.08 1009.38 1006.74 1005.78 1007.12 1006.91 1006.87 1007.20 1007.80 1007.16 1006.70 1007.05 1006.94 1007.79 1007.15 1007.50 1008.70 1009.31 1009.65 1009.85 1009.99 1009.61 1008.53 1007.46 1006.17 1005.58 1005.18 1003.36 1001.84 1001.23 1000.71 1000.20
1019.63 1019.29 1019.16 1019.05 1018.84 1018.66 1018.51 1018.33 1018.18 1018.03 1017.92 1017.76 1017.54 1016.38 1015.61 1015.47 1016.48 1016.64 1016.65 1015.72 1014.79 1014.17 1012.78 1009.76 1007.22 1006.27 1006.84 1006.18 1006.48 1007.02 1007.19 1007.29 1007.32 1006.89 1007.70 1007.58 1006.69 1008.28 1009.30 1010.10 1010.63 1010.48 1010.38 1009.63 1008.29 1006.63 1006.16 1006.07 1005.42 1002.27 1000.97 1000.02 999.56 999.50
1019.50 1019.18 1018.98 1018.84 1018.57 1018.39 1018.29 1018.10 1017.97 1017.87 1017.82 1017.29 1015.54 1014.51 1014.95 1016.19 1015.60 1014.42 1014.33 1014.06 1013.00 1011.59 1010.33 1008.79 1007.39 1006.55 1007.08 1007.09 1006.73 1006.94 1007.15 1007.03 1007.05 1006.72 1007.18 1007.29 1006.76 1007.90 1008.80 1009.65 1009.76 1010.06 1010.06 1008.99 1008.29 1007.43 1006.92 1006.44 1005.60 1004.47 1002.17 998.93 999.59 999.90
1019.31 1018.98 1018.75 1018.61 1018.35 1018.16 1018.02 1017.89 1017.80 1017.71 1017.11 1016.83 1016.65 1015.59 1014.82 1014.10 1013.30 1013.12 1012.83 1012.11 1011.26 1008.68 1008.34 1007.59 1007.17 1007.35 1007.11 1008.04 1007.63 1008.21 1007.81 1007.82 1006.65 1006.87 1007.43 1006.64 1007.36 1008.14 1008.82 1008.76 1008.67 1008.68 1008.86 1008.81 1008.28 1007.29 1006.65 1005.99 1005.61 1004.73 1002.20 1002.20 1001.96 1001.62
1019.12 1018.77 1018.43 1018.29 1018.10 1017.88 1017.74 1017.66 1017.57 1017.53 1017.21 1015.96 1015.78 1014.20 1013.13 1012.54 1012.07 1011.16 1009.68 1009.13 1008.44 1007.71 1007.09 1007.30 1007.18 1007.28 1007.82 1008.12 1007.73 1007.99 1007.52 1006.91 1006.75 1006.36 1006.27 1006.85 1007.93 1008.41 1008.62 1008.70 1008.35 1007.92 1007.60 1007.20 1007.63 1007.51 1006.48 1005.65 1005.17 1004.80 1003.87 1002.53 1002.30 1002.11
1018.80 1018.34 1018.06 1017.88 1017.63 1017.46 1017.43 1017.47 1017.48 1017.60 1016.94 1015.26 1013.81 1013.48 1012.01 1010.52 1009.36 1007.85 1007.10 1006.50 1006.50 1006.10 1006.26 1006.28 1006.41 1006.88 1006.73 1007.43 1007.34 1007.43 1006.72 1006.93 1006.19 1005.67 1006.53 1007.76 1008.30 1008.53 1008.77 1008.85 1008.65 1008.23 1007.98 1007.20 1006.41 1006.38 1006.27 1005.29 1004.57 1003.97 1003.21 1002.69 1002.36 1002.08
1018.27 1017.89 1017.54 1017.07 1016.88 1016.82 1016.87 1017.18 1017.44 1017.43 1016.87 1014.96 1013.11 1011.55 1009.70 1008.32 1007.38 1006.96 1006.57 1006.38 1006.39 1006.13 1005.94 1006.17 1006.46 1006.53 1006.58 1007.24 1006.77 1006.52 1006.45 1005.78 1005.49 1006.51 1007.21 1007.77 1008.17 1008.68 1008.74 1008.66 1008.31 1008.08 1007.76 1007.18 1006.59 1005.89 1005.48 1005.42 1004.53 1003.66 1003.08 1002.63 1002.32 1002.22
1018.05 1017.55 1017.45 1016.91 1016.38 1016.37 1016.67 1017.20 1017.49 1017.22 1016.14 1014.37 1012.60 1010.13 1008.44 1007.55 1006.59 1006.31 1006.26 1006.09 1005.98 1005.95 1006.36 1006.45 1006.49 1006.35 1006.40 1006.21 1006.37 1006.15 1005.47 1005.35 1006.23 1006.84 1007.37 1007.72 1008.22 1008.66 1008.84 1008.69 1008.34 1008.09 1007.67 1007.14 1006.62 1006.17 1005.66 1004.90 1004.33 1003.58 1002.94 1002.62 1002.17 1001.92
1017.94 1017.35 1017.45 1017.21 1016.71 1016.71 1016.93 1016.99 1017.03 1016.65 1015.57 1013.96 1011.04 1009.17 1008.57 1007.87 1007.22 1006.71 1006.48 1006.55 1006.68 1006.50 1006.62 1006.70 1006.43 1005.97 1006.20 1005.67 1005.58 1005.68 1005.93 1006.09 1006.60 1006.90 1007.04 1008.23 1008.61 1008.54 1008.40 1008.42 1008.27 1007.75 1007.46 1007.14 1006.79 1006.30 1005.90 1005.42 1004.66 1003.87 1002.91 1002.46 1002.02 1002.02
1017.12 1017.19 1017.39 1017.45 1017.32 1017.13 1016.99 1016.70 1016.29 1015.55 1014.27 1012.09 1009.91 1008.41 1007.70 1007.55 1007.29 1006.86 1006.46 1006.46 1006.62 1006.97 1006.45 1006.49 1006.34 1006.13 1005.78 1005.33 1005.24 1005.64 1005.70 1006.05 1006.44 1006.91 1007.50 1007.61 1007.69 1007.69 1007.70 1007.65 1007.68 1007.63 1007.32 1007.27 1006.90 1006.15 1005.80 1005.46 1004.50 1003.46 1002.51 1001.93 1001.82 1001.71
1017.37 1017.14 1017.26 1017.44 1017.46 1017.27 1016.70 1016.32 1016.12 1014.44 1012.27 1010.00 1008.83 1008.68 1007.89 1007.79 1007.91 1007.58 1006.88 1006.68 1006.53 1006.65 1006.55 1006.28 1005.92 1005.33 1005.33 1005.63 1005.60 1005.11 1005.50 1006.05 1006.34 1006.72 1006.85 1006.92 1006.76 1006.58 1006.62 1006.59 1007.01 1007.21 1006.98 1006.83 1006.37 1005.62 1005.23 1004.82 1004.04 1003.13 1002.50 1001.58 1001.31 1001.14
1017.08 1016.77 1016.62 1017.02 1017.31 1016.83 1016.06 1015.51 1015.31 1013.56 1011.05 1009.48 1008.85 1008.12 1007.86 1007.80 1007.29 1006.44 1006.19 1006.38 1006.49 1006.57 1006.61 1006.14 1005.03 1004.81 1005.11 1004.79 1005.21 1005.61 1006.09 1006.51 1006.72 1006.30 1006.25 1006.18 1005.94 1006.00 1006.67 1007.08 1006.80 1006.76 1006.53 1006.12 1005.43 1005.12 1004.69 1004.16 1003.50 1002.94 1002.41 1001.59 1001.78 1001.37
1016.41 1016.13 1016.23 1016.55 1016.82 1016.58 1015.65 1014.77 1013.86 1012.01 1010.59 1009.51 1008.60 1008.51 1007.80 1006.99 1006.46 1006.19 1006.38 1006.44 1006.29 1005.97 1005.44 1004.86 1004.94 1004.66 1005.06 1005.54 1005.82 1006.10 1006.41 1006.72 1006.67 1006.78 1006.37 1005.93 1005.84 1006.77 1006.50 1007.00 1006.73 1006.42 1006.06 1005.53 1004.85 1004.50 1004.28 1003.80 1003.46 1002.77 1002.44 1002.25 1001.86 1001.76
1016.46 1016.19 1016.16 1016.32 1016.03 1015.86 1015.03 1013.79 1013.05 1012.00 1010.73 1008.71 1008.07 1007.63 1007.26 1006.57 1006.16 1006.19 1006.28 1006.19 1005.19 1004.28 1003.97 1004.24 1004.07 1004.33 1005.41 1006.03 1006.23 1006.62 1006.67 1006.97 1006.83 1006.54 1006.32 1005.86 1006.85 1007.03 1007.28 1007.16 1006.69 1006.07 1005.48 1005.11 1004.50 1004.04 1003.62 1003.26 1003.09 1002.94 1002.68 1002.27 1002.19 1002.17
1016.41 1016.14 1015.70 1015.57 1015.23 1014.26 1013.16 1012.24 1012.01 1010.97 1009.58 1009.04 1008.07 1007.16 1005.87 1005.22 1004.97 1004.99 1005.37 1004.70 1003.93 1003.42 1003.32 1003.37 1004.19 1004.83 1005.17 1006.03 1006.40 1006.55 1006.71 1006.76 1006.05 1006.18 1005.83 1006.04 1007.18 1007.82 1007.49 1007.00 1006.68 1005.95 1005.42 1004.81 1004.39 1003.94 1003.61 1003.44 1003.15 1002.89 1002.63 1002.28 1001.96 1002.04
1016.08 1015.59 1014.88 1014.30 1013.88 1012.82 1011.89 1011.74 1011.54 1010.49 1009.64 1008.62 1007.82 1006.63 1005.72 1005.09 1004.54 1004.53 1003.69 1002.97 1002.68 1002.52 1002.97 1003.88 1004.54 1004.79 1005.33 1005.84 1005.87 1005.70 1005.85 1005.66 1005.38 1005.46 1005.45 1005.77 1006.82 1007.59 1007.83 1007.62 1007.11 1006.41 1005.87 1005.20 1004.58 1004.08 1003.68 1003.36 1003.32 1003.06 1003.08 1002.80 1002.74 1002.59
1015.39 1014.75 1014.12 1013.31 1012.63 1011.88 1010.72 1010.44 1010.56 1010.32 1009.38 1008.69 1007.71 1006.04 1005.03 1004.72 1004.34 1003.35 1002.44 1001.79 1001.94 1001.94 1002.60 1003.70 1003.98 1004.20 1004.48 1004.75 1004.89 1004.80 1005.37 1005.16 1004.94 1004.94 1005.27 1005.58 1006.53 1006.58 1007.03 1007.10 1006.96 1006.68 1006.04 1005.41 1004.81 1004.37 1003.98 1003.94 1004.10 1003.60 1003.67 1003.61 1003.79 1003.61
1014.28 1013.31 1012.77 1011.13 1011.12 1010.66 1010.10 1010.07 1009.59 1009.44 1009.03 1008.25 1006.96 1005.45 1004.01 1004.08 1002.96 1002.06 1001.73 1001.54 1001.45 1001.52 1002.10 1002.85 1003.17 1003.48 1003.77 1003.82 1004.07 1004.06 1004.41 1004.79 1004.75 1004.67 1005.21 1005.47 1005.45 1005.59 1005.78 1006.02 1006.21 1006.27 1006.10 1005.59 1005.18 1004.96 1004.89 1004.73 1004.89 1004.73 1004.52 1004.68 1004.58 1004.49
1013.01 1011.72 1010.94 1010.34 1010.75 1010.59 1010.30 1009.99 1009.55 1008.94 1008.16 1007.33 1005.98 1004.20 1003.76 1002.75 1002.15 1001.76 1001.42 1001.32 1001.18 1001.53 1001.75 1002.32 1002.69 1002.93 1003.16 1003.62 1004.03 1004.40 1004.60 1004.70 1004.98 1005.21 1005.41 1005.40 1005.29 1005.62 1005.77 1006.04 1006.24 1006.93 1006.72 1006.43 1006.33 1006.03 1005.89 1005.97 1005.91 1005.65 1005.58 1005.72 1005.64 1005.76
1011.98 1010.81 1009.97 1009.97 1010.10 1009.98 1009.70 1009.28 1008.73 1007.85 1006.99 1005.87 1004.68 1003.19 1002.31 1001.80 1002.06 1001.49 1001.07 1001.43 1001.68 1001.83 1001.94 1002.28 1002.52 1002.74 1002.79 1003.28 1003.72 1004.26 1004.12 1004.13 1004.15 1004.26 1004.74 1004.76 1005.30 1005.58 1005.65 1006.54 1007.04 1007.21 1007.00 1007.40 1007.19 1006.96 1006.81 1006.92 1007.04 1007.00 1007.02 1007.07 1007.35 1007.55
1010.96 1009.85 1009.47 1009.18 1009.44 1009.24 1008.72 1008.14 1007.22 1006.56 1005.81 1005.50 1004.34 1003.14 1001.99 1001.68 1001.30 1001.03 1001.37 1001.58 1001.69 1001.72 1001.92 1002.13 1002.44 1002.66 1002.84 1003.33 1003.80 1003.98 1003.79 1003.81 1004.05 1004.20 1004.23 1004.39 1004.66 1005.36 1005.58 1005.66 1006.34 1006.88 1006.79 1006.79 1007.47 1007.17 1006.84 1006.92 1007.69 1007.92 1008.02 1008.31 1008.49 1008.67
1009.03 1008.49 1008.70 1008.57 1008.16 1007.46 1006.63 1006.44 1005.36 1005.13 1005.06 1004.61 1003.84 1002.80 1002.13 1001.60 1001.20 1001.26 1001.46 1001.63 1001.47 1001.48 1001.56 1001.85 1002.15 1002.35 1002.59 1002.90 1003.27 1003.63 1003.65 1003.35 1003.38 1003.53 1004.22 1004.61 1004.94 1005.27 1005.54 1005.77 1005.77 1005.68 1006.00 1006.30 1006.43 1007.39 1007.86 1007.50 1007.81 1007.54 1008.13 1008.60 1009.15 1009.43
1008.24 1008.49 1008.33 1007.64 1006.64 1005.55 1004.81 1004.56 1004.13 1003.88 1003.75 1003.27 1002.82 1002.60 1002.18 1001.73 1001.17 1000.84 1001.02 1001.17 1001.22 1001.33 1001.22 1001.28 1001.56 1002.10 1002.17 1002.42 1003.03 1003.51 1003.37 1003.45 1003.90 1004.44 1004.89 1005.12 1005.47 1005.73 1005.77 1005.81 1005.84 1005.97 1005.97 1005.81 1005.99 1006.26 1006.63 1006.70 1006.77 1006.94 1007.25 1007.50 1007.92 1008.63
1007.44 1007.18 1006.92 1006.52 1005.63 1004.56 1003.84 1003.37 1002.92 1002.71 1002.63 1002.58 1002.30 1002.04 1001.61 1001.60 1001.16 1000.62 1000.58 1000.88 1000.97 1000.92 1000.93 1000.86 1000.79 1001.24 1001.64 1002.08 1002.43 1002.84 1003.20 1003.33 1004.20 1004.75 1005.16 1005.32 1005.90 1006.10 1006.00 1006.11 1006.22 1006.26 1006.26 1006.36 1006.55 1006.75 1006.94 1007.07 1007.46 1007.80 1008.12 1008.35 1008.64 1009.00
1007.20 1006.93 1006.76 1005.95 1004.63 1003.41 1002.58 1002.75 1002.58 1002.01 1001.51 1001.40 1001.24 1001.02 1000.95 1001.47 1000.78 1000.51 1000.60 1000.73 1000.66 1000.45 1000.38 1000.70 1000.80 1001.26 1001.45 1001.86 1001.95 1002.50 1003.11 1003.33 1004.13 1005.07 1005.57 1005.96 1006.28 1006.26 1006.20 1006.43 1006.56 1006.64 1006.72 1006.85 1007.07 1007.30 1007.44 1007.67 1007.84 1008.16 1008.46 1008.75 1009.07 1009.39
Thickness
5597 5599 5601 5603 5606 5610 5612 5616 5619 5622 5624 5628 5632 5636 5641 5646 5651 5659 5679 5677 5680 5695 5712 5714 5714 5709 5715 5711 5710 5711 5707 5717 5717 5706 5714 5722 5721 5731 5725 5733 5725 5719 5718 5726 5736 5726 5719 5778 5772 5746 5766 5770 5763 5763
5593 5596 5598 5600 5603 5605 5608 5611 5615 5618 5621 5624 5627 5630 5634 5638 5642 5647 5673 5673 5673 5676 5700 5703 5706 5710 5708 5711 5711 5715 5708 5705 5714 5708 5717 5720 5715 5724 5715 5704 5737 5715 5728 5718 5725 5731 5753 5744 5749 5758 5759 5754 5750 5747
5587 5591 5595 5598 5600 5602 5604 5607 5610 5614 5618 5620 5623 5626 5628 5632 5636 5640 5658 5663 5671 5678 5698 5701 5704 5711 5709 5707 5711 5693 5706 5707 5701 5708 5699 5703 5692 5708 5696 5707 5712 5724 5731 5716 5713 5727 5732 5739 5743 5745 5748 5738 5737 5736
5581 5585 5590 5594 5597 5599 5601 5604 5607 5610 5613 5617 5620 5622 5625 5628 5631 5635 5652 5657 5663 5671 5680 5699 5706 5700 5705 5704 5699 5699 5699 5699 5699 5695 5690 5691 5690 5708 5697 5703 5699 5709 5711 5703 5702 5713 5715 5719 5724 5726 5722 5724 5720 5724
5575 5578 5583 5588 5592 5595 5598 5601 5604 5607 5610 5613 5616 5619 5622 5624 5627 5632 5645 5652 5654 5655 5670 5689 5701 5702 5699 5697 5691 5691 5690 5688 5687 5683 5683 5682 5694 5690 5695 5695 5692 5702 5694 5688 5689 5701 5696 5699 5703 5707 5702 5704 5709 5710
5570 5572 5576 5581 5586 5590 5593 5597 5601 5604 5607 5610 5613 5616 5619 5621 5623 5636 5652 5649 5649 5650 5656 5678 5699 5688 5692 5689 5684 5682 5684 5683 5681 5678 5682 5688 5696 5681 5674 5676 5691 5694 5690 5687 5679 5689 5692 5693 5695 5699 5697 5699 5703 5703
5564 5567 5571 5575 5579 5584 5588 5593 5596 5600 5604 5607 5610 5614 5618 5621 5624 5639 5640 5638 5637 5643 5652 5670 5687 5689 5688 5684 5683 5683 5687 5682 5678 5675 5677 5677 5677 5673 5668 5663 5674 5664 5661 5661 5662 5664 5663 5669 5672 5685 5690 5693 5697 5704
5559 5562 5565 5569 5573 5578 5582 5587 5591 5595 5600 5603 5606 5610 5614 5617 5620 5631 5631 5627 5628 5640 5648 5660 5681 5681 5687 5681 5681 5693 5681 5683 5676 5669 5674 5672 5670 5668 5659 5657 5652 5648 5642 5644 5647 5652 5651 5656 5662 5668 5678 5686 5688 5693
5553 5557 5561 5564 5568 5571 5577 5581 5586 5590 5595 5599 5602 5606 5611 5617 5632 5627 5620 5620 5625 5630 5646 5665 5677 5677 5685 5682 5684 5680 5674 5666 5683 5665 5665 5657 5657 5648 5642 5640 5635 5631 5621 5620 5630 5636 5640 5633 5633 5653 5671 5679 5685 5694
5546 5551 5555 5558 5562 5566 5570 5575 5579 5584 5589 5593 5599 5615 5618 5622 5614 5614 5617 5617 5622 5624 5635 5651 5680 5671 5678 5681 5675 5670 5669 5658 5648 5662 5655 5646 5655 5645 5637 5629 5620 5619 5615 5620 5625 5635 5631 5624 5615 5655 5673 5686 5694 5698
5541 5545 5548 5552 5557 5562 5565 5569 5573 5577 5582 5592 5611 5619 5617 5608 5617 5625 5620 5619 5627 5634 5647 5658 5669 5667 5674 5659 5663 5668 5655 5658 5640 5651 5642 5638 5647 5641 5638 5628 5627 5620 5615 5624 5624 5628 5625 5621 5626 5635 5659 5675 5691 5689
5536 5540 5543 5546 5551 5556 5561 5565 5568 5571 5581 5587 5592 5600 5608 5614 5622 5617 5615 5624 5627 5648 5656 5657 5661 5661 5664 5658 5652 5645 5640 5641 5637 5654 5634 5636 5638 5635 5629 5630 5631 5628 5620 5615 5619 5625 5628 5631 5631 5632 5641 5653 5660 5667
5530 5534 5539 5542 5545 5550 5555 5559 5563 5566 5572 5584 5590 5600 5608 5613 5599 5612 5626 5635 5637 5652 5660 5655 5650 5655 5651 5650 5646 5639 5634 5637 5654 5643 5636 5634 5630 5628 5626 5624 5626 5627 5627 5627 5617 5616 5625 5630 5630 5633 5640 5653 5659 5662
5526 5531 5535 5538 5542 5546 5549 5552 5556 5558 5567 5581 5592 5581 5601 5611 5624 5643 5649 5653 5659 5664 5661 5661 5655 5650 5655 5642 5643 5629 5645 5640 5634 5636 5626 5621 5620 5620 5618 5615 5612 5611 5611 5618 5623 5620 5620 5628 5634 5641 5649 5655 5658 5660
5524 5528 5532 5537 5541 5544 5546 5547 5548 5550 5559 5577 5591 5590 5612 5633 5645 5650 5656 5654 5656 5661 5660 5654 5652 5652 5645 5634 5642 5640 5630 5634 5638 5620 5620 5620 5617 5610 5608 5606 5606 5604 5605 5609 5615 5618 5622 5622 5629 5638 5646 5653 5656 5657
5517 5524 5526 5532 5538 5540 5541 5540 5540 5545 5558 5574 5586 5604 5624 5630 5639 5645 5647 5647 5655 5655 5652 5650 5640 5638 5635 5640 5631 5628 5635 5631 5624 5622 5620 5618 5609 5602 5597 5596 5598 5599 5600 5602 5607 5611 5615 5622 5626 5634 5644 5648 5654 5658
5513 5520 5520 5524 5530 5532 5533 5536 5538 5542 5553 5564 5591 5612 5615 5621 5625 5633 5638 5636 5644 5640 5631 5632 5627 5632 5640 5635 5631 5634 5623 5628 5624 5621 5619 5604 5596 5595 5595 5591 5591 5595 5595 5595 5598 5603 5606 5610 5618 5626 5635 5643 5651 5654
5516 5515 5515 5516 5518 5523 5527 5533 5540 5548 5557 5578 5594 5609 5619 5622 5624 5630 5637 5639 5636 5628 5634 5627 5637 5627 5626 5629 5629 5631 5633 5630 5625 5617 5608 5604 5600 5597 5594 5591 5589 5588 5589 5586 5588 5598 5601 5603 5613 5624 5637 5646 5649 5652
5508 5511 5512 5512 5513 5517 5526 5532 5533 5550 5568 5592 5603 5604 5612 5614 5617 5622 5630 5634 5637 5637 5633 5630 5627 5629 5629 5631 5629 5637 5633 5625 5618 5612 5609 5604 5602 5600 5598 5595 5587 5580 5580 5580 5585 5596 5601 5606 5616 5626 5634 5647 5650 5657
5506 5510 5512 5510 5509 5518 5528 5534 5536 5553 5574 5588 5595 5601 5605 5606 5616 5629 5632 5631 5629 5626 5619 5620 5634 5639 5633 5641 5637 5631 5625 5619 5612 5609 5605 5604 5605 5601 5589 5581 5581 5577 5576 5580 5590 5594 5602 5608 5618 5625 5633 5644 5643 5651
5507 5510 5511 5509 5509 5513 5526 5535 5544 5562 5575 5581 5593 5590 5598 5613 5618 5622 5620 5624 5619 5619 5622 5637 5633 5641 5639 5633 5630 5626 5620 5614 5608 5603 5600 5599 5600 5584 5588 5579 5577 5578 5579 5585 5593 5599 5601 5609 5616 5625 5630 5635 5642 5646
5502 5505 5508 5507 5512 5514 5523 5538 5545 5556 5569 5588 5595 5601 5598 5605 5611 5613 5618 5613 5622 5635 5641 5636 5642 5641 5628 5621 5620 5617 5615 5609 5607 5605 5599 5600 5583 5583 5575 5574 5576 5581 5586 5588 5595 5602 5609 5615 5619 5623 5627 5633 5636 5641
5498 5502 5507 5509 5515 5527 5538 5548 5548 5562 5573 5577 5591 5596 5611 5618 5623 5630 5614 5625 5634 5645 5646 5646 5638 5633 5628 5621 5617 5615 5612 5607 5609 5604 5605 5599 5583 5570 5571 5575 5578 5583 5587 5593 5597 5604 5609 5610 5617 5623 5628 5633 5638 5640
5496 5502 5510 5519 5525 5535 5547 5546 5550 5564 5573 5581 5586 5595 5606 5614 5625 5618 5623 5635 5641 5648 5643 5633 5629 5625 5621 5616 5615 5617 5615 5615 5614 5609 5608 5600 5584 5573 5570 5572 5576 5581 5584 5590 5596 5602 5607 5613 5615 5622 5624 5629 5631 5635
5496 5506 5515 5512 5530 5541 5555 5560 5557 5559 5565 5573 5580 5599 5610 5617 5610 5621 5629 5641 5642 5645 5641 5631 5629 5627 5621 5620 5621 5622 5618 5617 5614 5610 5607 5602 5587 5582 5576 5577 5579 5581 5587 5591 5596 5600 5607 5609 5610 5618 5620 5622 5621 5625
5500 5517 5524 5543 5543 5552 5562 5560 5568 5567 5568 5572 5587 5606 5620 5611 5620 5624 5633 5639 5643 5645 5641 5634 5631 5628 5625 5627 5622 5623 5621 5620 5617 5612 5606 5602 5598 5593 5589 5582 5584 5585 5588 5593 5597 5598 5600 5605 5604 5609 5613 5611 5612 5618
5509 5528 5537 5549 5543 5547 5552 5557 5563 5568 5573 5578 5593 5612 5612 5614 5618 5630 5642 5646 5646 5646 5647 5642 5637 5632 5628 5625 5624 5622 5621 5620 5614 5610 5608 5605 5604 5597 5590 5586 5583 5580 5583 5587 5588 5591 5594 5595 5598 5603 5605 5604 5607 5608
5522 5534 5544 5547 5546 5552 5556 5561 5565 5574 5583 5598 5607 5615 5619 5623 5622 5636 5644 5645 5645 5645 5644 5642 5640 5636 5634 5629 5626 5621 5622 5624 5623 5621 5615 5613 5606 5602 5598 5587 5582 5578 5582 5579 5580 5583 5585 5586 5585 5588 5590 5591 5590 5589
5531 5545 5550 5554 5551 5555 5561 5569 5578 5588 5598 5595 5603 5609 5626 5635 5642 5644 5643 5643 5645 5642 5638 5635 5634 5635 5633 5629 5625 5623 5625 5623 5615 5609 5607 5606 5605 5601 5603 5601 5593 5588 5588 5587 5575 5582 5587 5589 5580 5576 5577 5576 5576 5576
5552 5561 5556 5558 5562 5568 5580 5585 5596 5600 5602 5606 5616 5624 5630 5635 5641 5645 5641 5639 5639 5638 5640 5638 5635 5632 5628 5625 5622 5621 5625 5628 5626 5621 5610 5606 5604 5606 5604 5601 5601 5602 5599 5595 5595 5585 5577 5583 5579 5582 5577 5573 5569 5565
5560 5556 5557 5565 5576 5590 5598 5603 5607 5611 5613 5617 5623 5619 5621 5628 5637 5644 5642 5642 5642 5641 5641 5638 5636 5633 5631 5629 5622 5618 5619 5625 5623 5619 5617 5612 5608 5605 5604 5603 5603 5601 5600 5601 5600 5598 5594 5592 5590 5587 5584 5582 5580 5574
5568 5571 5574 5575 5582 5598 5606 5608 5613 5614 5617 5616 5618 5623 5625 5620 5621 5635 5644 5642 5639 5638 5640 5639 5640 5637 5639 5637 5635 5632 5627 5627 5620 5615 5612 5610 5605 5604 5605 5603 5601 5600 5598 5596 5594 5592 5589 5587 5582 5578 5574 5572 5570 5568
5566 5565 5569 5580 5593 5603 5614 5610 5607 5614 5622 5621 5623 5627 5627 5618 5621 5633 5643 5644 5642 5643 5644 5642 5644 5641 5641 5638 5638 5635 5630 5629 5622 5612 5608 5605 5603 5603 5604 5601 5599 5597 5594 5592 5589 5587 5584 5581 5578 5574 5571 5568 5565 5563